Location: Newark
(48.1236°N, 0.7169°W)
Time: 20:37:12
(UTC+00:00)

Envisat - Pass Details

Date: 21 November 2019
Orbit: 764 x 766 km, 98.1° (Epoch: 09 December)

Event Time Altitude Azimuth Distance (km) Brightness Sun altitude
Rises 19:22:32 0° 212° (SSW) 3,222 6.6 -30.3°
Reaches altitude 10° 19:25:43 10° 234° (SW) 2,301 6.0 -30.8°
Maximum altitude 19:28:49 16° 272° (W) 1,910 5.8 -31.3°
Drops below altitude 10° 19:31:57 10° 310° (NW) 2,311 6.1 -31.8°
Sets 19:35:11 0° 332° (NNW) 3,243 6.7 -32.4°
